Regional Weather Roundup
Issued by NWS

Home | Current Version | Previous Version | Graphics & Text | Print | Product List | Glossary On
Versions: 1 2 3 4 5 6 7 8 9 10 11 12 13 14 15 16 17 18 19 20 21 22 23 24 25 26 27 28 29 30 31 32 33 34 35 36 37 38 39 40 41 42 43 44 45 46 47 48 49 50
000
ASUS43 KBIS 221759
RWRND

NORTH DAKOTA REGIONAL WEATHER ROUNDUP
NATIONAL WEATHER SERVICE BISMARCK ND
100 PM CDT TUE APR 22 2014

NOTE: "FAIR" INDICATES FEW OR NO CLOUDS BELOW 12,000 FEET WITH NO
SIGNIFICANT WEATHER AND/OR OBSTRUCTIONS TO VISIBILITY.


NDZ001>003-009>011-017-221900-
NORTHWEST NORTH DAKOTA

CITY           SKY/WX    TMP DP  RH WIND       PRES   REMARKS
WILLISTON      PTSUNNY   66  28  24 SE22G31   29.84F
6HR MIN TEMP:  40; 6HR MAX TEMP:  66;

MINOT          FAIR      63  30  28 E14       29.94F
$$

NDZ018>021-031>035-040>046-221900-
SOUTHWEST NORTH DAKOTA

CITY           SKY/WX    TMP DP  RH WIND       PRES   REMARKS
BISMARCK       MOSUNNY   69  29  22 SE15G24   29.94F
6HR MIN TEMP:  31; 6HR MAX TEMP:  69;

GARRISON         N/A     65  28  24 SE17G23   29.92F
6HR MIN TEMP:  29; 6HR MAX TEMP:  65; 6HR PCP:  0.01;

HETTINGER ARPT MOSUNNY   64  30  27 SE24G35   29.83F
$$

NDZ004>008-012>016-024-026-027-054-221900-
NORTHEAST NORTH DAKOTA

CITY           SKY/WX    TMP DP  RH WIND       PRES   REMARKS
GRAND FORKS    FAIR      56  36  47 VRB7      30.08F
DEVILS LAKE    FAIR      57  34  41 SE12      30.03F
$$

NDZ022-023-025-028>030-036>039-047>053-221900-
SOUTHEAST NORTH DAKOTA

CITY           SKY/WX    TMP DP  RH WIND       PRES   REMARKS
FARGO          FAIR      59  33  37 S9        30.08F
6HR MIN TEMP:  29; 6HR MAX TEMP:  60;

$$




USA.gov is the U.S. government's official web portal to all federal, state and local government web resources and services.